Location: ???? ????
(41.4149°N, 22.8816°E)
Time: 01:25:28
(UTC+00:00)

Cosmos 1816 Rocket - Visible Passes

Search period start: 24 October 2020 00:00
Search period end: 03 November 2020 00:00
Orbit: 951 x 999 km, 82.9° (Epoch: 23 October)

Date Brightness Start Highest point End Pass type
(mag) Time Alt. Az. Time Alt. Az. Time Alt. Az.
24 Oct 6.3 01:14:31 23° NNE 01:14:31 23° NNE 01:16:45 10° NNE visible
24 Oct 6.0 02:59:14 18° NW 02:59:14 18° NW 03:01:22 10° NNW visible
25 Oct 6.2 01:40:16 22° N 01:40:16 22° N 01:42:16 10° N visible
25 Oct 6.4 03:24:58 10° NW 03:24:58 10° NW 03:25:07 10° NW visible
26 Oct 7.2 00:21:16 10° NNE 00:21:16 10° NNE 00:21:19 10° NNE visible
26 Oct 6.3 02:05:57 18° N 02:05:57 18° N 02:07:28 10° N visible
27 Oct 7.0 00:46:54 12° NNE 00:46:54 12° NNE 00:47:21 10° NNE visible
27 Oct 6.5 02:31:36 13° NNW 02:31:36 13° NNW 02:32:18 10° NNW visible
28 Oct 6.9 01:12:30 12° N 01:12:30 12° N 01:12:58 10° N visible
29 Oct 6.9 01:38:04 11° N 01:38:04 11° N 01:38:15 10° N visible
